Location: Chibluco
(42.2122°N, 0.3577°W)
Time: 17:36:56
(UTC+00:00)

Daily predictions for brighter satellites

Satellite Brightness Start Highest point End
(mag) Time Altitude Azimuth Time Altitude Azimuth Time Altitude Azimuth
ATLAS CENTAUR R/B 1.5 17:37:55 10° NNW 17:41:45 43° NE 17:45:19 10° SE
Cosmos 1703 3.4 17:40:22 10° S 17:44:13 54° E 17:48:06 10° NNE
Cosmos 1953 Rocket 3.6 17:40:42 10° S 17:45:10 74° E 17:49:39 10° NNE
Cosmos 2341 Rocket 4.2 17:38:47 10° S 17:45:10 81° W 17:51:32 10° N
Cosmos 1455 2.1 17:43:59 10° N 17:47:46 71° E 17:51:31 10° SSE
Cosmos 1758 Rocket 4.2 17:44:49 10° SSW 17:49:03 57° W 17:53:19 10° N
Cosmos 2237 Rocket 4.0 17:45:09 10° NW 17:50:17 37° WSW 17:55:24 10° S
CORIOLIS 4.4 17:45:24 10° S 17:50:45 75° WSW 17:56:08 10° NNW
Cosmos 1842 Rocket 4.5 17:47:35 10° NNE 17:51:29 28° ENE 17:55:21 10° SE
COSMO-SKYMED 1 2.8 17:47:33 10° NNE 17:51:47 48° E 17:55:58 10° S
Cosmos 864 Rocket 4.5 17:47:38 10° S 17:53:41 65° E 17:59:45 10° NNE
SMAP 4.1 17:50:03 10° S 17:54:34 52° W 17:59:08 10° NNW
Cosmos 1339 Rocket 4.4 17:50:40 10° N 17:56:48 76° E 18:02:58 10° SSE
DELTA 2 R/B (1) 4.2 17:51:44 10° W 17:57:11 54° SSW 18:02:38 10° ESE
Shenzhou-11 Module 1.6 17:55:03 10° W 17:57:46 82° N 17:59:59 14° E
Iridium 96 4.2 17:56:36 10° N 17:59:06 61° W 18:01:42 10° S
Meteor 2-10 Rocket 3.5 17:55:12 10° N 18:00:25 88° W 18:05:28 10° S
USA 234 3.3 17:55:09 10° ESE 18:01:37 67° NE 18:08:06 10° NW
Cosmos 1356 Rocket 3.5 18:00:40 10° N 18:04:39 52° ENE 18:08:42 10° SSE
Cosmos 2218 Rocket 4.1 17:59:18 10° S 18:05:40 89° E 18:12:07 10° N
Ariane Rocket 4.2 18:03:13 10° ESE 18:06:47 20° ENE 18:10:21 10° NNE
USA 116 4.0 18:05:44 10° NE 18:08:29 29° E 18:11:18 10° SSE
ADEOS Rocket 4.1 18:03:00 10° NNE 18:09:10 32° E 18:15:43 10° SSE
CZ-2D R/B 4.0 18:06:52 10° SE 18:10:16 31° ENE 18:13:41 10° N
Cosmos 1869 4.5 18:13:55 10° NNE 18:17:00 21° ENE 18:18:29 17° ESE
SL-8 R/B 4.5 18:12:44 10° WNW 18:17:18 41° N 18:20:30 18° NE
SL-16 R/B 2.8 18:11:46 10° NNW 18:17:22 62° WSW 18:22:55 10° S
Cosmos 2221 2.9 18:13:50 10° N 18:17:52 38° ENE 18:21:53 10° SSE
YAOGAN 6 3.1 18:14:21 10° S 18:17:59 63° W 18:21:36 10° NNW
Cosmos 44 Rocket 3.2 18:16:14 10° SSW 18:21:03 74° ESE 18:25:12 14° NE
USA 238 DEB 4.1 18:15:16 10° S 18:21:24 41° ESE 18:26:24 16° NE
USA 238 4.1 18:15:24 10° S 18:21:31 41° ESE 18:26:28 16° NE
Cosmos 1076 Rocket 4.4 18:17:56 10° SSE 18:21:35 27° E 18:24:11 16° NE
Cosmos 2227 4.4 18:16:03 10° S 18:21:35 51° ESE 18:27:06 10° NE
CZ-4 R/B 4.4 18:18:23 10° SSE 18:22:30 90° ENE 18:26:39 10° NNW
Cosmos 1939 Rocket 3.1 18:19:37 10° SE 18:23:22 44° ENE 18:27:13 10° N
BREEZE-M DEB (TANK) 3.3 18:23:11 10° W 18:25:16 31° NNW 18:26:22 21° NNE
Cosmos 2056 Rocket 4.2 18:22:16 10° SSE 18:26:52 31° E 18:29:44 19° NE
Cosmos 2297 Rocket 4.2 18:23:07 10° WSW 18:27:40 24° NW 18:32:13 10° N
Cosmos 1603 3.8 18:25:09 10° NNW 18:30:39 50° ENE 18:36:05 10° SE
Cosmos 2263 Rocket 2.4 18:26:25 10° S 18:31:41 46° ESE 18:35:48 17° NE
EP 3 3.6 18:32:13 10° SW 18:34:15 75° SW 18:34:15 75° SW
Haruka 4.5 18:32:19 10° SSW 18:34:57 20° SSE 18:37:23 14° SE
Akebono 4.4 18:33:15 10° NNW 18:36:50 87° WSW 18:38:54 13° SSE
SKYMED 2 4.5 18:35:37 10° N 18:39:49 49° WNW 18:44:00 10° SSW
Okean-O 4.4 18:36:46 10° SSW 18:40:48 35° W 18:44:52 10° NNW
Cosmos 2227 Rocket 4.4 18:37:09 10° W 18:41:23 21° NW 18:45:39 10° N
NOAA 11 4.1 18:35:59 10° SSE 18:41:29 85° ENE 18:46:59 10° NNW
Cosmos 2058 3.3 18:39:32 10° SSE 18:43:24 39° E 18:43:58 37° ENE
Cosmos 1140 Rocket 4.0 18:41:31 10° N 18:46:23 37° ENE 18:47:38 32° E
OAO 3 Rocket 4.4 18:43:01 10° SW 18:47:00 29° SSE 18:48:40 23° SE
Meteor 1-27 4.2 18:41:59 10° NNW 18:47:34 82° W 18:53:09 10° S
ATLAS 5 CENTAUR R/B 4.2 18:43:05 10° NNW 18:48:12 45° NE 19:07:45 10° ESE
Atlas Centaur 2 3.7 18:47:42 10° SW 18:50:34 17° S 18:53:17 12° SSE
YAOGAN 1 3.0 18:47:00 10° S 18:51:16 64° WSW 18:55:35 10° NNW
DMSP B5D1-3 4.4 18:50:57 10° NNE 18:56:04 88° E 19:01:11 10° SSW
Cosmos 1943 3.1 18:53:30 10° NNW 18:59:08 64° ENE 19:03:00 21° SE
H-2A R/B 3.2 19:04:42 26° NNE 19:04:42 26° NNE 19:07:24 10° N
STARLINK-67 4.3 19:00:21 10° WSW 19:01:48 29° WSW 19:01:48 29° WSW
ATLAS 3B R/B 3.7 19:00:34 10° SSE 19:04:32 24° SE 19:04:32 24° SE
ISS -1.4 19:04:58 10° NW 19:06:38 16° NNW 19:06:38 16° NNW
CZ-4 R/B 3.4 19:03:45 10° SSW 19:07:23 31° W 19:11:07 10° NNW
USA 267 4.4 19:06:36 18° NNE 19:10:38 34° NNW 19:16:20 10° W
NOSS 3-2 (C) 3.4 19:08:39 10° SSW 19:14:06 52° ESE 19:14:41 50° E
SJ-11-01 4.1 19:19:15 73° ENE 19:19:15 73° ENE 19:23:51 10° N
ATLAS CENTAUR R/B 4.2 19:17:58 10° WNW 19:20:13 15° WSW 19:22:24 10° SSW
Timation 1 Rocket 4.4 19:14:48 10° SSW 19:20:47 77° WNW 19:24:16 27° NNE
CENTAUR R/B 2.7 19:15:47 10° S 19:20:42 44° SE 19:20:42 44° SE
Cosmos 1371 Rocket 4.3 19:20:39 10° SSW 19:25:47 65° WNW 19:28:27 29° N
Cosmos 407 Rocket 3.7 19:21:20 10° NNW 19:26:36 71° WSW 19:30:26 18° S
Cosmos 1190 Rocket 4.0 19:23:12 10° NNW 19:28:33 80° WSW 19:30:51 35° S
NOSS 3-2 (A) 3.4 19:25:01 10° SW 19:30:42 79° NW 19:32:40 46° NNE
Cosmos 676 Rocket 4.5 19:35:52 10° NNW 19:39:53 52° N 19:39:53 52° N
Ariane Rocket 3.6 19:40:21 10° S 19:45:18 55° W 19:50:18 10° NNW
MOS 1 4.3 19:45:38 60° S 19:46:42 80° WSW 19:52:26 10° NNW
Cosmos 1605 Rocket 3.9 19:42:39 10° S 19:48:59 86° E 19:49:16 82° NE
ADEOS Rocket 4.1 19:48:06 10° N 19:54:46 53° WNW 20:01:59 10° SW
Cosmos 2263 Rocket 3.9 20:11:08 10° WSW 20:15:49 27° NW 20:17:33 23° NNW
ATLAS 3B R/B 4.4 20:49:31 10° SW 20:51:52 23° SW 20:51:52 23° SW
